Miscellaneous Local Product
Issued by NWS Hastings, NE

Home | Current Version | Previous Version | Graphics & Text | Print | Product List | Glossary On
Versions: 1 2 3 4 5 6 7 8 9 10 11 12 13 14 15 16 17 18 19 20 21 22 23 24 25 26 27 28 29 30 31 32 33 34 35 36 37 38 39 40 41 42 43 44 45 46 47 48 49 50
000
AXUS43 KGID 300902
MISGRI

GID CWA HOURLY WEATHER ROUNDUP
NATIONAL WEATHER SERVICE HASTINGS NE
400 AM CDT SAT AUG 30 2014

NOTE: "FAIR" INDICATES FEW OR NO CLOUDS BELOW 12,000 FEET WITH NO
SIGNIFICANT WEATHER AND/OR OBSTRUCTIONS TO VISIBILITY.

...SOUTH CENTRAL NEBRASKA...

CITY           SKY/WX    TMP DP  RH WIND       PRES   REMARKS
GRAND ISLAND   CLEAR     62  58  86 W5        29.96R
HASTINGS       CLEAR     61  57  87 NW7       29.96R
KEARNEY        CLEAR     61  57  88 NW7       29.98S
ORD            CLEAR     59  57  93 CALM      29.96R
YORK           CLEAR     61 N/A N/A NW7       29.94R
AURORA         CLEAR     59  59 100 CALM      29.95R
LEXINGTON      CLEAR     59  57  94 NW6       29.99S
HOLDREGE       CLEAR     60  57  90 CALM      29.98S
HEBRON         CLEAR     64  60  87 NW5       29.93S

...NEBRASKA PANHANDLE...

CITY           SKY/WX    TMP DP  RH WIND       PRES   REMARKS
CHADRON        CLEAR     52  51  97 CALM      29.99F
ALLIANCE       CLEAR     53  51  93 S5        30.04F
SCOTTSBLUFF    CLEAR     55  53  93 E6        30.04F
SIDNEY         CLEAR     56  53  90 SW9       30.09F

...WESTERN AND NORTH CENTRAL NEBRASKA...

CITY           SKY/WX    TMP DP  RH WIND       PRES   REMARKS
VALENTINE      CLEAR     54  53  97 CALM      30.00F
AINSWORTH      CLEAR     55  54  95 CALM      30.00F
ONEILL         CLEAR     58  58  98 N6        29.97R
BROKEN BOW     CLEAR     58  55  90 N5        29.99S
IMPERIAL       CLEAR     59  55  87 NW3       30.04S
NORTH PLATTE   CLEAR     56  55  97 CALM      30.01R
MCCOOK         PTCLDY    60  59  96 SW3       30.01S

...EASTERN NEBRASKA...

CITY           SKY/WX    TMP DP  RH WIND       PRES   REMARKS
NORFOLK        CLEAR     62  60  93 NW6       29.92R
SO SIOUX CITY  CLEAR     64  62  93 NW5       29.86R
TEKAMAH        CLEAR     64  62  93 NW3       29.87R
COLUMBUS       CLEAR     63  57  82 NW5       29.93R
ALBION         CLEAR     61  58  91 CALM      29.94S
OMAHA EPPLEY   CLEAR     65  62  90 NW6       29.87R
OFFUTT AFB     CLEAR     64  64 100 CALM      29.87R
MILLARD        CLEAR     66  65  96 NW3       29.87R
LINCOLN        PTCLDY    67  63  87 NW6       29.91R
NEBRASKA CITY  CLEAR     66  66 100 W6        29.89R
BEATRICE       CLEAR     63  63 100 CALM      29.91R FOG
FALLS CITY     CLEAR     66  65  96 NW3       29.87S

...NORTHERN KANSAS...

CITY           SKY/WX    TMP DP  RH WIND       PRES   REMARKS
GOODLAND       PTCLDY    57  55  93 W6        30.05F
HILL CITY      CLEAR     62  59  90 CALM      29.99R
NORTON         SUNNY     59  54  82 CALM      29.98S
PHILLIPSBURG   CLEAR     63  63 100 NW6       29.97S
SMITH CENTER   CLEAR     63  57  82 NW7       29.96S
BELOIT         CLEAR     63  61  94 CALM      29.93R
HAYS           CLEAR     61  54  77 NW5       29.97R
RUSSELL        CLEAR     64  57  78 NW5       29.95R
CONCORDIA      CLEAR     65  64  97 W6        29.93R
SALINA         CLEAR     67  63  87 CALM      29.93R
TOPEKA         CLEAR     71  69  93 SW3       29.88S



USA.gov is the U.S. government's official web portal to all federal, state and local government web resources and services.